Location: L�Ave Maria
(50.7161°N, 1.5911°E)
Time: 00:25:05
(UTC+00:00)

GP-B - Pass Details

Date: 10 July 2020
Orbit: 631 x 635 km, 89.8° (Epoch: 03 August)

Event Time Altitude Azimuth Distance (km) Brightness Sun altitude
Rises 22:13:40 0° 8° (N) 2,941 7.5 -13.6°
Reaches altitude 10° 22:16:06 10° 19° (NNE) 2,027 6.4 -13.7°
Maximum altitude 22:20:06 32° 83° (E) 1,093 4.2 -14.0°
Enters shadow 22:22:24 20° 131° (SE) 1,463 4.4 -14.1°
